User: anonymous
Location: Caltech
(34.1382°N, 118.1253°W)
Time: 16:28:51
(UTC-07:00)
Language:

BREEZE M DEB (TANK) - Orbit

View from above orbital plane
View from above orbital plane
View from above satellite
View from above satellite

Ground track
Ground track

The orbit data is extracted from the following two-line orbital elements,

1 33437U 08057B   14110.35699422  .00004841  00000-0  11267-2 0   163
2 33437 049.5468 148.3628 5025356 320.8548 039.6111 05.55013109109433
Epoch (UTC): 20 April 2014 08:34:04
Eccentricity: 0.5025356
inclination: 49.5468°
perigee height: 325 km
apogee height: 13868 km
right ascension of ascending node: 148.3628°
argument of perigee: 320.8548°
revolutions per day: 5.55013109
mean anomaly at epoch: 39.6111°
orbit number at epoch: 10943

The dashed part of the orbit path shows where the satellite is in the earth's shadow,  

DLR